Regional Weather Roundup
Issued by NWS

Home | Current Version | Previous Version | Graphics & Text | Print | Product List | Glossary On
Versions: 1 2 3 4 5 6 7 8 9 10 11 12 13 14 15 16 17 18 19 20 21 22 23 24 25 26 27 28 29 30 31 32 33 34 35 36 37 38 39 40 41 42 43 44 45 46 47 48 49 50
000
ASUS45 KCYS 171210
RWRWY

WYOMING REGIONAL WEATHER ROUNDUP
NATIONAL WEATHER SERVICE CHEYENNE WY
500 AM MST SAT FEB 17 2018

NOTE:  "FAIR" INDICATES FEW OR NO CLOUDS BELOW 12,000 FEET
WITH NO SIGNIFICANT WEATHER AND/OR OBSTRUCTIONS TO VISIBILITY.

WYZ001-171300-
YELLOWSTONE NATIONAL PARK

CITY           SKY/WX    TMP DP  RH WIND       PRES   REMARKS
LK YELLOWSTONE   N/A     15  10  80 CALM      29.94S
6HR MIN TEMP:  14; 6HR MAX TEMP:  16; 6HR PCP:  0.01;

W YELLOWSTONE  NOT AVBL

$$
WYZ002>013-054>058-071-098>099-171300-
NORTHERN WYOMING

CITY           SKY/WX    TMP DP  RH WIND       PRES   REMARKS
JACKSON        CLOUDY    23  15  71 SW12      30.02R WCI  12
CODY           FAIR      21  15  78 SE8       29.93R WCI  11
GREYBULL       CLOUDY    18  16  92 N3        29.99R
6HR MIN TEMP:  17; 6HR MAX TEMP:  21; 6HR PCP: TRACE;

WORLAND        CLOUDY    11   7  84 S9        30.00R WCI  -2
6HR MIN TEMP:   1; 6HR MAX TEMP:  12;

SHERIDAN       LGT SNOW  26  24  92 W6        29.95R FOG     WCI  19
6HR MIN TEMP:  24; 6HR MAX TEMP:  33; 6HR PCP:  0.03;

BUFFALO        MOCLDY    23  20  88 N9        29.91R WCI  13
6HR MIN TEMP:  21; 6HR MAX TEMP:  30; 6HR PCP: TRACE;

GILLETTE       MOCLDY    22  19  89 W10       29.92R WCI  11
6HR MIN TEMP:  13; 6HR MAX TEMP:  27; 6HR PCP:  0.01;

HULETT         CLOUDY    27  21  80 NW6G17    29.91R WCI  20
NEWCASTLE      FAIR      23  18  80 NW12      29.91R WCI  12

$$
WYZ014>020-022>026-101>103-171300-
CENTRAL WYOMING

CITY           SKY/WX    TMP DP  RH WIND       PRES   REMARKS
BIG PINEY      FAIR      13  10  88 SW5       30.04R WCI   5
6HR MIN TEMP:  10; 6HR MAX TEMP:  21; 6HR PCP: TRACE;

PINEDALE       FAIR      12  10  92 CALM      30.05R
DUBOIS           N/A    N/A N/A N/A MISG        N/A
LANDER         FAIR      23   6  48 W12       29.95R WCI  12
6HR MIN TEMP:  22; 6HR MAX TEMP:  30;

RIVERTON       FAIR      20   4  50 SW7       29.95R WCI  11
6HR MIN TEMP:  18; 6HR MAX TEMP:  26;

CASPER         FAIR      22  12  65 W16       29.94R WCI   8
6HR MIN TEMP:  19; 6HR MAX TEMP:  25;

DOUGLAS        FAIR      21  13  71 NW8       29.93R WCI  11
6HR MIN TEMP:  21; 6HR MAX TEMP:  31;


$$
WYZ021-027>030-104>119-171300-
SOUTHERN WYOMING

CITY           SKY/WX    TMP DP  RH WIND       PRES   REMARKS
EVANSTON       CLOUDY    25  15  66 W12       30.13R WCI  14
6HR MIN TEMP:  25; 6HR MAX TEMP:  27;

FORT BRIDGER   CLOUDY    27  15  59 W21G28    30.11S WCI  14
ROCK SPRINGS   CLOUDY    27  13  55 W22G29    30.07R WCI  13
6HR MIN TEMP:  26; 6HR MAX TEMP:  29;

DIXON          CLOUDY    27  15  60 W10       30.15R WCI  17
RAWLINS        FAIR      21  11  65 W24G35    30.00R WCI   4
6HR MIN TEMP:  21; 6HR MAX TEMP:  24;

SARATOGA       FAIR      23  12  63 W16G25    30.05R WCI  10
LARAMIE        FAIR      20  11  68 W25G33    29.94R WCI   2
6HR MIN TEMP:  20; 6HR MAX TEMP:  22; 6HR PCP: TRACE;

CHEYENNE       FAIR      28  10  46 W23G35    29.93R WCI  14
6HR MIN TEMP:  27; 6HR MAX TEMP:  30;

TORRINGTON     FAIR      32  14  47 W17       29.92R WCI  21
6HR MIN TEMP:  30; 6HR MAX TEMP:  35;

PINE BLUFFS    FAIR      32  10  40 MISG      29.95R

$$



USA.gov is the U.S. government's official web portal to all federal, state and local government web resources and services.